Location: Newark
(44.3248°N, 23.7839°E)
Time: 15:22:05
(UTC+00:00)

X-37B - Pass Details

Date: 31 January 2022
Orbit: 328 x 343 km, 45.0° (Epoch: 15 May)

Event Time Altitude Azimuth Distance (km) Brightness Sun altitude
Rises 17:23:04 0° 269° (W) 2,114 5.9 -19.9°
Reaches altitude 10° 17:25:05 10° 271° (W) 1,273 4.4 -20.2°
Enters shadow 17:27:14 46° 285° (WNW) 460 1.3 -20.6°
